Hourly Data Report for May 15, 2022

CARBERRY CS
MANITOBA
Current Station Operator: ECCC - MSC

49°54'20.900" N
99°21'26.800" W
383.50 m
5010547
71170
WZE

Download Data

Hourly Data (May 2022)
Hourly Data Report for May 15, 2022
TIME
LST
Temp Definition
°C
Dew Point Definition
°C
Rel Hum Definition
%
Precip. Amount Definition
mm

Wind Dir Definition
10's deg

Wind Spd Definition
km/h
Visibility Definition
km
Stn Press Definition
kPa
Hmdx Definition


Wind Chill Definition


Weather Definition


00:00 6.6 3.8 82 0.0 25 15   96.42     LegendNANA
01:00 5.6 3.1 84 0.0 24 8   96.40     LegendNANA
02:00 5.0 3.2 88 0.0 24 10   96.42     LegendNANA
03:00 4.9 3.1 88 0.0 25 10   96.43     LegendNANA
04:00 4.4 3.1 92 0.0 26 10   96.39     LegendNANA
05:00 3.9 3.1 94 0.0 27 11   96.41     LegendNANA
06:00 5.2 3.6 89 0.0 27 20   96.45     LegendNANA
07:00 6.8 4.2 84 0.0 27 20   96.50     LegendNANA
08:00 8.8 4.1 72 0.0 26 18   96.51     LegendNANA
09:00 10.9 4.0 62 0.0 29 36   96.51     LegendNANA
10:00 12.2 4.1 58 0.0 29 37   96.50     LegendNANA
11:00 13.5 4.9 56 0.0 29 42   96.51     LegendNANA
12:00 14.6 5.3 54 0.0 30 40   96.53     LegendNANA
13:00 15.2 4.7 50 0.0 29 41   96.54     LegendNANA
14:00 16.0 3.7 44 0.0 29 47   96.53     LegendNANA
15:00 16.9 3.2 40 0.0 29 45   96.53     LegendNANA
16:00 16.9 2.8 39 0.0 30 46   96.53     LegendNANA
17:00 16.5 3.5 42 0.0 31 38   96.55     LegendNANA
18:00 16.2 2.5 40 0.0 30 35   96.58     LegendNANA
19:00 14.6 5.0 52 0.0 32 28   96.62     LegendNANA
20:00 9.2 4.4 72 0.0 5 16   96.73     LegendNANA
21:00 7.1 3.8 79 0.0 8 5   96.80     LegendNANA
22:00 5.8 3.4 85 0.0 18 4   96.82     LegendNANA
23:00 4.5 3.5 93 0.0 26 2   96.84     LegendNANA

Notes on Data Quality.

Legend

  • E = Estimated
  • M = Missing
  • NA = Not Available*
  • [empty] = Indicates an unobserved value
Date modified: